| time (UTC) | temp F | wind direction | speed MPH | gust MPH | rain 1hr in | rain 24hr in | rain mn in | humidity % | barometer mb |
| 20260904191009 | 67 | 213 | 3.0 | 7.0 | 0.00 | 0.01 | 0.00 | 72 | 997.3 |
| 20260904185956 | 67 | 207 | 2.0 | 6.0 | 0.00 | 0.01 | 0.00 | 73 | 997.3 |
| 20260904184944 | 66 | 236 | 2.0 | 6.0 | 0.00 | 0.01 | 0.00 | 75 | 997.4 |
| 20260904184438 | 66 | 245 | 3.0 | 7.0 | 0.00 | 0.01 | 0.00 | 75 | 997.4 |
| 20260904183932 | 65 | 232 | 3.0 | 7.0 | 0.00 | 0.01 | 0.00 | 75 | 997.4 |
| 20260904183426 | 65 | 238 | 2.0 | 6.0 | 0.00 | 0.01 | 0.00 | 77 | 997.4 |
| 20260904182920 | 65 | 248 | 2.0 | 6.0 | 0.00 | 0.01 | 0.00 | 78 | 997.3 |
| 20260904181913 | 65 | 182 | 3.0 | 7.0 | 0.00 | 0.01 | 0.00 | 79 | 997.4 |
| 20260904181410 | 65 | 293 | 3.0 | 7.0 | 0.00 | 0.01 | 0.00 | 78 | 997.3 |
| 20260904180910 | 64 | 147 | 2.0 | 6.0 | 0.00 | 0.01 | 0.00 | 81 | 997.3 |
| 20260904180410 | 64 | 183 | 3.0 | 6.0 | 0.00 | 0.01 | 0.00 | 82 | 997.3 |
| 20260904175909 | 63 | 227 | 3.0 | 7.0 | 0.00 | 0.01 | 0.00 | 84 | 997.2 |
| 20260904175410 | 63 | 189 | 3.0 | 7.0 | 0.00 | 0.01 | 0.00 | 87 | 997.2 |
| 20260904174909 | 62 | 215 | 3.0 | 6.0 | 0.00 | 0.01 | 0.00 | 88 | 997.3 |
| 20260904174410 | 61 | 232 | 3.0 | 6.0 | 0.00 | 0.01 | 0.00 | 89 | 997.3 |
| 20260904173910 | 61 | 201 | 2.0 | 5.0 | 0.00 | 0.01 | 0.00 | 90 | 997.3 |
| 20260904173408 | 60 | 161 | 2.0 | 5.0 | 0.00 | 0.01 | 0.00 | 92 | 997.3 |
| 20260904172408 | 60 | 221 | 1.0 | 4.0 | 0.00 | 0.01 | 0.00 | 93 | 997.3 |
| 20260904171907 | 59 | 164 | 0.0 | 4.0 | 0.00 | 0.01 | 0.00 | 93 | 997.2 |
| 20260904171407 | 59 | 231 | 1.0 | 3.0 | 0.00 | 0.01 | 0.00 | 93 | 997.2 |
| 20260904170403 | 59 | 166 | 2.0 | 4.0 | 0.00 | 0.01 | 0.00 | 93 | 997.2 |
| 20260904165402 | 59 | 211 | 2.0 | 5.0 | 0.00 | 0.01 | 0.00 | 94 | 997.0 |
| 20260904164857 | 59 | 180 | 2.0 | 5.0 | 0.00 | 0.01 | 0.00 | 94 | 997.0 |
| 20260904164357 | 59 | 262 | 2.0 | 5.0 | 0.00 | 0.01 | 0.00 | 94 | 996.9 |
| 20260904163857 | 58 | 178 | 2.0 | 5.0 | 0.00 | 0.01 | 0.00 | 94 | 996.9 |
| 20260904162858 | 58 | 208 | 1.0 | 3.0 | 0.00 | 0.01 | 0.00 | 94 | 996.8 |
| 20260904162358 | 58 | 208 | 1.0 | 3.0 | 0.00 | 0.01 | 0.00 | 94 | 996.8 |
| 20260904161857 | 58 | 205 | 0.0 | 3.0 | 0.00 | 0.01 | 0.00 | 94 | 996.8 |
| 20260904161356 | 58 | 277 | 0.0 | 2.0 | 0.00 | 0.01 | 0.00 | 94 | 996.8 |
| 20260904160858 | 58 | 278 | 0.0 | 2.0 | 0.00 | 0.01 | 0.00 | 94 | 996.8 |
| 20260904155852 | 57 | 278 | 1.0 | 3.0 | 0.00 | 0.01 | 0.00 | 94 | 996.7 |
| 20260904155354 | 58 | 278 | 1.0 | 3.0 | 0.00 | 0.01 | 0.00 | 94 | 996.9 |
| 20260904154853 | 58 | 275 | 1.0 | 4.0 | 0.00 | 0.01 | 0.00 | 94 | 996.8 |
| 20260904153853 | 57 | 163 | 0.0 | 2.0 | 0.00 | 0.01 | 0.00 | 93 | 996.8 |
| 20260904153352 | 57 | 163 | 0.0 | 1.0 | 0.00 | 0.01 | 0.00 | 93 | 996.7 |
| 20260904152854 | 57 | 163 | 0.0 | 0.0 | 0.00 | 0.01 | 0.00 | 93 | 996.6 |
| 20260904152354 | 57 | 163 | 0.0 | 1.0 | 0.00 | 0.01 | 0.00 | 93 | 996.6 |
| 20260904151850 | 57 | 163 | 0.0 | 1.0 | 0.00 | 0.01 | 0.00 | 93 | 996.6 |
| 20260904151348 | 57 | 163 | 0.0 | 1.0 | 0.00 | 0.01 | 0.00 | 93 | 996.6 |
| 20260904150849 | 57 | 163 | 0.0 | 0.0 | 0.00 | 0.01 | 0.00 | 93 | 996.5 |
| 20260904150348 | 57 | 163 | 0.0 | 1.0 | 0.00 | 0.01 | 0.00 | 93 | 996.5 |
| 20260904145848 | 57 | 163 | 0.0 | 2.0 | 0.00 | 0.01 | 0.00 | 93 | 996.5 |
| 20260904145349 | 57 | 163 | 0.0 | 2.0 | 0.00 | 0.01 | 0.00 | 93 | 996.3 |
| 20260904144850 | 57 | 163 | 0.0 | 4.0 | 0.00 | 0.01 | 0.00 | 93 | 996.2 |
| 20260904144349 | 57 | 163 | 0.0 | 4.0 | 0.00 | 0.01 | 0.00 | 93 | 996.2 |
| 20260904143850 | 57 | 167 | 0.0 | 3.0 | 0.00 | 0.01 | 0.00 | 93 | 996.2 |
| 20260904143343 | 57 | 167 | 1.0 | 3.0 | 0.00 | 0.01 | 0.00 | 93 | 996.2 |
| 20260904142836 | 57 | 167 | 1.0 | 3.0 | 0.00 | 0.01 | 0.00 | 93 | 996.1 |
| 20260904142331 | 57 | 167 | 0.0 | 1.0 | 0.00 | 0.01 | 0.00 | 93 | 996.0 |
| 20260904141825 | 57 | 167 | 0.0 | 1.0 | 0.00 | 0.01 | 0.00 | 93 | 996.0 |
| 20260904141319 | 57 | 167 | 0.0 | 1.0 | 0.00 | 0.01 | 0.00 | 93 | 995.8 |
| 20260904140306 | 57 | 167 | 0.0 | 3.0 | 0.00 | 0.01 | 0.00 | 93 | 995.8 |
| 20260904135801 | 57 | 167 | 0.0 | 3.0 | 0.00 | 0.01 | 0.00 | 93 | 995.7 |
| 20260904135255 | 57 | 167 | 0.0 | 3.0 | 0.00 | 0.01 | 0.00 | 93 | 995.6 |
| 20260904134749 | 57 | 167 | 0.0 | 3.0 | 0.00 | 0.01 | 0.00 | 93 | 995.6 |
| 20260904134242 | 57 | 167 | 0.0 | 3.0 | 0.00 | 0.01 | 0.00 | 93 | 995.6 |
| 20260904133737 | 57 | 167 | 0.0 | 3.0 | 0.00 | 0.01 | 0.00 | 93 | 995.5 |
| 20260904133231 | 56 | 167 | 0.0 | 3.0 | 0.00 | 0.01 | 0.00 | 93 | 995.5 |
| 20260904132725 | 56 | 166 | 0.0 | 3.0 | 0.00 | 0.01 | 0.00 | 93 | 995.5 |
| 20260904132219 | 56 | 166 | 0.0 | 4.0 | 0.00 | 0.01 | 0.00 | 93 | 995.6 |
| 20260904131713 | 56 | 167 | 0.0 | 4.0 | 0.00 | 0.01 | 0.00 | 93 | 995.5 |
| 20260904131207 | 56 | 217 | 0.0 | 0.0 | 0.00 | 0.01 | 0.00 | 93 | 995.4 |
| 20260904130701 | 56 | 217 | 0.0 | 0.0 | 0.00 | 0.01 | 0.00 | 92 | 995.4 |
| 20260904130155 | 56 | 219 | 0.0 | 0.0 | 0.00 | 0.01 | 0.00 | 92 | 995.4 |
| 20260904124637 | 55 | 299 | 0.0 | 0.0 | 0.00 | 0.01 | 0.00 | 92 | 995.2 |
| 20260904123624 | 55 | 299 | 0.0 | 0.0 | 0.00 | 0.01 | 0.00 | 92 | 995.3 |
| 20260904123119 | 55 | 299 | 0.0 | 0.0 | 0.00 | 0.01 | 0.00 | 92 | 995.3 |
| 20260904122106 | 55 | 299 | 0.0 | 0.0 | 0.00 | 0.01 | 0.00 | 92 | 995.2 |
| 20260904121054 | 55 | 299 | 0.0 | 0.0 | 0.00 | 0.01 | 0.00 | 92 | 995.2 |
| 20260904120550 | 55 | 299 | 0.0 | 0.0 | 0.00 | 0.01 | 0.00 | 92 | 995.2 |
| 20260904120043 | 55 | 299 | 0.0 | 0.0 | 0.00 | 0.01 | 0.00 | 92 | 995.1 |
| 20260904115537 | 55 | 299 | 0.0 | 0.0 | 0.00 | 0.01 | 0.00 | 92 | 995.2 |
| 20260904115031 | 55 | 299 | 0.0 | 0.0 | 0.00 | 0.01 | 0.00 | 92 | 995.1 |
| 20260904114525 | 56 | 299 | 0.0 | 0.0 | 0.00 | 0.01 | 0.00 | 92 | 995.1 |
| 20260904114018 | 56 | 299 | 0.0 | 0.0 | 0.00 | 0.01 | 0.00 | 92 | 995.2 |
| 20260904113513 | 56 | 299 | 0.0 | 0.0 | 0.00 | 0.01 | 0.00 | 92 | 995.2 |
| 20260904113007 | 56 | 299 | 0.0 | 0.0 | 0.00 | 0.01 | 0.00 | 92 | 995.2 |
| 20260904112501 | 56 | 299 | 0.0 | 0.0 | 0.00 | 0.01 | 0.00 | 92 | 995.2 |
| 20260904111955 | 56 | 299 | 0.0 | 0.0 | 0.00 | 0.01 | 0.00 | 91 | 995.1 |
| 20260904111449 | 56 | 299 | 0.0 | 0.0 | 0.00 | 0.01 | 0.00 | 91 | 995.2 |
| 20260904110943 | 56 | 299 | 0.0 | 0.0 | 0.00 | 0.01 | 0.00 | 91 | 995.2 |
| 20260904110438 | 56 | 299 | 0.0 | 0.0 | 0.00 | 0.01 | 0.00 | 91 | 995.1 |
| 20260904105930 | 56 | 297 | 0.0 | 2.0 | 0.00 | 0.01 | 0.00 | 91 | 995.0 |
| 20260904103906 | 56 | 284 | 0.0 | 1.0 | 0.00 | 0.01 | 0.00 | 91 | 995.0 |
| 20260904103401 | 56 | 284 | 0.0 | 1.0 | 0.00 | 0.01 | 0.00 | 91 | 994.9 |
| 20260904102854 | 57 | 284 | 0.0 | 2.0 | 0.00 | 0.01 | 0.00 | 92 | 995.0 |
| 20260904102348 | 57 | 284 | 0.0 | 2.0 | 0.00 | 0.01 | 0.00 | 91 | 994.9 |
| 20260904101843 | 57 | 284 | 0.0 | 1.0 | 0.00 | 0.01 | 0.00 | 91 | 994.8 |
| 20260904101337 | 57 | 284 | 0.0 | 1.0 | 0.00 | 0.01 | 0.00 | 91 | 994.9 |
| 20260904100831 | 57 | 284 | 0.0 | 1.0 | 0.00 | 0.01 | 0.00 | 91 | 994.9 |
| 20260904095819 | 57 | 284 | 0.0 | 2.0 | 0.00 | 0.01 | 0.00 | 92 | 994.9 |
| 20260904095312 | 57 | 284 | 1.0 | 2.0 | 0.00 | 0.01 | 0.00 | 92 | 994.9 |
| 20260904094807 | 58 | 284 | 1.0 | 2.0 | 0.00 | 0.01 | 0.00 | 92 | 994.9 |
| 20260904094301 | 58 | 284 | 1.0 | 2.0 | 0.00 | 0.01 | 0.00 | 91 | 994.8 |
| 20260904093755 | 58 | 284 | 1.0 | 2.0 | 0.00 | 0.01 | 0.00 | 91 | 994.8 |
| 20260904093249 | 58 | 284 | 1.0 | 2.0 | 0.00 | 0.01 | 0.00 | 91 | 994.8 |
| 20260904092743 | 58 | 284 | 0.0 | 2.0 | 0.00 | 0.01 | 0.00 | 91 | 994.8 |
| 20260904092236 | 58 | 271 | 0.0 | 1.0 | 0.00 | 0.01 | 0.00 | 91 | 994.7 |
| 20260904091731 | 58 | 271 | 0.0 | 1.0 | 0.00 | 0.01 | 0.00 | 91 | 994.7 |
| 20260904091225 | 58 | 271 | 0.0 | 2.0 | 0.00 | 0.01 | 0.00 | 91 | 994.7 |
| 20260904090719 | 58 | 271 | 0.0 | 2.0 | 0.00 | 0.01 | 0.00 | 91 | 994.7 |
| 20260904090213 | 58 | 271 | 0.0 | 1.0 | 0.00 | 0.01 | 0.00 | 91 | 994.8 |
| 20260904085707 | 59 | 271 | 0.0 | 0.0 | 0.00 | 0.01 | 0.00 | 91 | 994.7 |
| 20260904084654 | 59 | 271 | 0.0 | 0.0 | 0.00 | 0.01 | 0.00 | 91 | 994.7 |
| 20260904084149 | 59 | 271 | 0.0 | 0.0 | 0.00 | 0.01 | 0.00 | 91 | 994.7 |
| 20260904083643 | 59 | 271 | 0.0 | 0.0 | 0.00 | 0.01 | 0.00 | 92 | 994.7 |
| 20260904083137 | 60 | 271 | 0.0 | 0.0 | 0.00 | 0.01 | 0.00 | 92 | 994.7 |
| 20260904082631 | 60 | 271 | 0.0 | 0.0 | 0.00 | 0.01 | 0.00 | 91 | 994.7 |
| 20260904082125 | 60 | 271 | 0.0 | 0.0 | 0.00 | 0.01 | 0.00 | 92 | 994.6 |
| 20260904081619 | 60 | 271 | 0.0 | 0.0 | 0.00 | 0.01 | 0.00 | 92 | 994.7 |
| 20260904081113 | 60 | 271 | 0.0 | 1.0 | 0.00 | 0.01 | 0.00 | 92 | 994.7 |
| 20260904080607 | 60 | 271 | 0.0 | 1.0 | 0.00 | 0.01 | 0.00 | 92 | 994.6 |
| 20260904075555 | 60 | 271 | 0.0 | 2.0 | 0.00 | 0.01 | 0.00 | 92 | 994.6 |
| 20260904075050 | 60 | 275 | 1.0 | 4.0 | 0.00 | 0.01 | 0.00 | 92 | 994.6 |
| 20260904074543 | 60 | 277 | 1.0 | 4.0 | 0.00 | 0.01 | 0.00 | 92 | 994.6 |
| 20260904074037 | 61 | 163 | 1.0 | 4.0 | 0.00 | 0.01 | 0.00 | 92 | 994.6 |
| 20260904073530 | 61 | 271 | 1.0 | 3.0 | 0.00 | 0.01 | 0.00 | 92 | 994.7 |
| 20260904072519 | 61 | 281 | 1.0 | 4.0 | 0.00 | 0.01 | 0.00 | 92 | 994.6 |
| 20260904072013 | 61 | 282 | 2.0 | 5.0 | 0.00 | 0.01 | 0.00 | 92 | 994.6 |
| 20260904071000 | 60 | 221 | 0.0 | 3.0 | 0.00 | 0.01 | 0.00 | 91 | 994.5 |
| 20260904070455 | 60 | 221 | 1.0 | 2.0 | 0.00 | 0.01 | 0.00 | 92 | 994.5 |
| 20260904065948 | 60 | 222 | 0.0 | 2.0 | 0.00 | 0.01 | 0.01 | 91 | 994.5 |
| 20260904065442 | 60 | 255 | 0.0 | 1.0 | 0.00 | 0.01 | 0.01 | 91 | 994.6 |
| 20260904064431 | 60 | 321 | 0.0 | 0.0 | 0.00 | 0.01 | 0.01 | 91 | 994.5 |
| 20260904063928 | 60 | 321 | 0.0 | 0.0 | 0.00 | 0.01 | 0.01 | 91 | 994.5 |
| 20260904063428 | 60 | 321 | 0.0 | 0.0 | 0.00 | 0.01 | 0.01 | 91 | 994.5 |
| 20260904062423 | 60 | 321 | 0.0 | 0.0 | 0.00 | 0.01 | 0.01 | 91 | 994.6 |
| 20260904061923 | 60 | 321 | 0.0 | 0.0 | 0.00 | 0.01 | 0.01 | 91 | 994.6 |
| 20260904061423 | 60 | 321 | 0.0 | 0.0 | 0.00 | 0.01 | 0.01 | 91 | 994.6 |
| 20260904060421 | 60 | 321 | 0.0 | 0.0 | 0.00 | 0.01 | 0.01 | 91 | 994.6 |
| 20260904055918 | 60 | 321 | 0.0 | 0.0 | 0.00 | 0.01 | 0.01 | 91 | 994.7 |
| 20260904055419 | 60 | 321 | 0.0 | 0.0 | 0.00 | 0.01 | 0.01 | 91 | 994.7 |
| 20260904054919 | 60 | 321 | 0.0 | 0.0 | 0.00 | 0.01 | 0.01 | 91 | 994.7 |
| 20260904054418 | 60 | 321 | 0.0 | 0.0 | 0.00 | 0.01 | 0.01 | 91 | 994.8 |
| 20260904053919 | 60 | 321 | 0.0 | 0.0 | 0.00 | 0.01 | 0.01 | 91 | 994.8 |
| 20260904053418 | 60 | 321 | 0.0 | 0.0 | 0.00 | 0.01 | 0.01 | 91 | 994.8 |
| 20260904052919 | 60 | 321 | 0.0 | 0.0 | 0.00 | 0.01 | 0.01 | 91 | 994.9 |
| 20260904051918 | 60 | 321 | 0.0 | 0.0 | 0.00 | 0.01 | 0.01 | 91 | 995.0 |
| 20260904051419 | 60 | 321 | 0.0 | 0.0 | 0.00 | 0.01 | 0.01 | 91 | 995.0 |
| 20260904050419 | 60 | 321 | 0.0 | 0.0 | 0.00 | 0.01 | 0.01 | 91 | 995.1 |
| 20260904045916 | 60 | 321 | 0.0 | 0.0 | 0.00 | 0.01 | 0.01 | 91 | 995.1 |
| 20260904045415 | 60 | 321 | 0.0 | 0.0 | 0.00 | 0.01 | 0.01 | 91 | 995.1 |
| 20260904044915 | 60 | 313 | 0.0 | 0.0 | 0.00 | 0.01 | 0.01 | 91 | 995.0 |
| 20260904044415 | 60 | 309 | 0.0 | 3.0 | 0.00 | 0.01 | 0.01 | 91 | 995.1 |
| 20260904043917 | 60 | 309 | 0.0 | 3.0 | 0.00 | 0.01 | 0.01 | 91 | 995.1 |
| 20260904043411 | 60 | 305 | 1.0 | 4.0 | 0.00 | 0.01 | 0.01 | 91 | 995.1 |
| 20260904042911 | 60 | 337 | 1.0 | 4.0 | 0.00 | 0.01 | 0.01 | 91 | 995.1 |
| 20260904041411 | 61 | 338 | 0.0 | 3.0 | 0.00 | 0.01 | 0.01 | 91 | 995.0 |
| 20260904040912 | 61 | 59 | 0.0 | 1.0 | 0.00 | 0.01 | 0.01 | 91 | 994.8 |
| 20260904040412 | 61 | 59 | 0.0 | 0.0 | 0.00 | 0.01 | 0.01 | 91 | 994.7 |
| 20260904035912 | 61 | 59 | 0.0 | 0.0 | 0.00 | 0.01 | 0.01 | 90 | 994.7 |
| 20260904035413 | 61 | 59 | 0.0 | 0.0 | 0.00 | 0.01 | 0.01 | 90 | 994.6 |
| 20260904034911 | 61 | 59 | 0.0 | 0.0 | 0.00 | 0.01 | 0.01 | 90 | 994.6 |
| 20260904034412 | 61 | 59 | 0.0 | 1.0 | 0.00 | 0.01 | 0.01 | 90 | 994.6 |
| 20260904033912 | 61 | 59 | 1.0 | 2.0 | 0.00 | 0.01 | 0.01 | 90 | 994.6 |
| 20260904033412 | 61 | 59 | 1.0 | 3.0 | 0.01 | 0.01 | 0.01 | 90 | 994.5 |
| 20260904032413 | 61 | 68 | 1.0 | 3.0 | 0.01 | 0.01 | 0.01 | 90 | 994.5 |
| 20260904031913 | 61 | 44 | 0.0 | 2.0 | 0.01 | 0.01 | 0.01 | 90 | 994.5 |
| 20260904031409 | 61 | 325 | 1.0 | 4.0 | 0.01 | 0.01 | 0.01 | 90 | 994.5 |
| 20260904030409 | 62 | 323 | 0.0 | 3.0 | 0.01 | 0.01 | 0.01 | 90 | 994.3 |
| 20260904025901 | 62 | 347 | 1.0 | 3.0 | 0.01 | 0.01 | 0.01 | 90 | 994.2 |
| 20260904025355 | 62 | 335 | 1.0 | 3.0 | 0.01 | 0.01 | 0.01 | 90 | 994.4 |
| 20260904024850 | 62 | 333 | 0.0 | 1.0 | 0.01 | 0.01 | 0.01 | 90 | 994.5 |
| 20260904024343 | 62 | 333 | 1.0 | 4.0 | 0.01 | 0.01 | 0.01 | 90 | 994.5 |
| 20260904023839 | 62 | 333 | 1.0 | 4.0 | 0.01 | 0.01 | 0.01 | 90 | 994.5 |
| 20260904023339 | 62 | 216 | 1.0 | 5.0 | 0.00 | 0.00 | 0.00 | 90 | 994.5 |
| 20260904022841 | 62 | 215 | 1.0 | 5.0 | 0.00 | 0.00 | 0.00 | 90 | 994.6 |
| 20260904022340 | 62 | 270 | 1.0 | 4.0 | 0.00 | 0.00 | 0.00 | 90 | 994.6 |
| 20260904021840 | 62 | 213 | 1.0 | 4.0 | 0.00 | 0.00 | 0.00 | 90 | 994.6 |
| 20260904021339 | 62 | 258 | 3.0 | 10.0 | 0.00 | 0.00 | 0.00 | 90 | 994.7 |
| 20260904020339 | 62 | 273 | 2.0 | 8.0 | 0.00 | 0.00 | 0.00 | 90 | 994.8 |
| 20260904015839 | 63 | 275 | 2.0 | 9.0 | 0.00 | 0.00 | 0.00 | 90 | 994.7 |
| 20260904015338 | 63 | 277 | 3.0 | 9.0 | 0.00 | 0.00 | 0.00 | 89 | 994.8 |
| 20260904014838 | 63 | 273 | 3.0 | 7.0 | 0.00 | 0.00 | 0.00 | 89 | 994.9 |
| 20260904014337 | 63 | 280 | 3.0 | 10.0 | 0.00 | 0.00 | 0.00 | 89 | 994.9 |
| 20260904013836 | 64 | 273 | 3.0 | 10.0 | 0.00 | 0.00 | 0.00 | 89 | 994.9 |
| 20260904013335 | 64 | 269 | 3.0 | 8.0 | 0.00 | 0.00 | 0.00 | 88 | 994.9 |
| 20260904012835 | 64 | 244 | 3.0 | 9.0 | 0.00 | 0.00 | 0.00 | 88 | 994.8 |
| 20260904011830 | 64 | 227 | 2.0 | 8.0 | 0.00 | 0.00 | 0.00 | 88 | 994.8 |
| 20260904011324 | 64 | 219 | 2.0 | 7.0 | 0.00 | 0.00 | 0.00 | 88 | 994.8 |
| 20260904010312 | 64 | 229 | 3.0 | 8.0 | 0.00 | 0.00 | 0.00 | 88 | 995.0 |
| 20260904005806 | 64 | 199 | 3.0 | 8.0 | 0.00 | 0.00 | 0.00 | 88 | 994.9 |
| 20260904005300 | 65 | 278 | 3.0 | 9.0 | 0.00 | 0.00 | 0.00 | 88 | 994.9 |
| 20260904004754 | 65 | 272 | 4.0 | 9.0 | 0.00 | 0.00 | 0.00 | 87 | 995.0 |
| 20260904004248 | 65 | 294 | 3.0 | 7.0 | 0.00 | 0.00 | 0.00 | 87 | 994.9 |
| 20260904003742 | 65 | 246 | 3.0 | 7.0 | 0.00 | 0.00 | 0.00 | 87 | 995.0 |
| 20260904003235 | 65 | 225 | 3.0 | 11.0 | 0.00 | 0.00 | 0.00 | 87 | 995.0 |
| 20260904002224 | 64 | 293 | 1.0 | 6.0 | 0.00 | 0.00 | 0.00 | 86 | 995.0 |
| 20260904001717 | 64 | 241 | 1.0 | 8.0 | 0.00 | 0.00 | 0.00 | 86 | 995.0 |
| 20260904001211 | 64 | 285 | 2.0 | 8.0 | 0.00 | 0.00 | 0.00 | 86 | 995.0 |
| 20260904000707 | 64 | 277 | 2.0 | 6.0 | 0.00 | 0.00 | 0.00 | 86 | 995.0 |
| 20260904000200 | 64 | 224 | 2.0 | 6.0 | 0.00 | 0.00 | 0.00 | 86 | 995.0 |
| 20260903235654 | 65 | 234 | 2.0 | 4.0 | 0.00 | 0.00 | 0.00 | 86 | 995.1 |
| 20260903235148 | 65 | 202 | 2.0 | 8.0 | 0.00 | 0.00 | 0.00 | 86 | 995.1 |
| 20260903234642 | 65 | 271 | 2.0 | 8.0 | 0.00 | 0.00 | 0.00 | 86 | 995.2 |
| 20260903234136 | 65 | 292 | 2.0 | 9.0 | 0.00 | 0.00 | 0.00 | 86 | 995.3 |
| 20260903233629 | 65 | 277 | 2.0 | 9.0 | 0.00 | 0.00 | 0.00 | 86 | 995.3 |
| 20260903233124 | 65 | 267 | 2.0 | 9.0 | 0.00 | 0.00 | 0.00 | 86 | 995.3 |
| 20260903232618 | 65 | 201 | 2.0 | 6.0 | 0.00 | 0.00 | 0.00 | 85 | 995.4 |
| 20260903232111 | 65 | 221 | 3.0 | 9.0 | 0.00 | 0.00 | 0.00 | 85 | 995.5 |
| 20260903231100 | 65 | 289 | 3.0 | 11.0 | 0.00 | 0.00 | 0.00 | 84 | 995.6 |
| 20260903230552 | 65 | 273 | 3.0 | 9.0 | 0.00 | 0.00 | 0.00 | 84 | 995.7 |
| 20260903225541 | 66 | 312 | 3.0 | 9.0 | 0.00 | 0.00 | 0.00 | 84 | 995.8 |
| 20260903224529 | 66 | 200 | 3.0 | 7.0 | 0.00 | 0.00 | 0.00 | 84 | 995.8 |
| 20260903224023 | 66 | 217 | 4.0 | 10.0 | 0.00 | 0.00 | 0.00 | 84 | 995.8 |
| 20260903223518 | 66 | 234 | 3.0 | 10.0 | 0.00 | 0.00 | 0.00 | 84 | 995.9 |
| 20260903223012 | 66 | 275 | 3.0 | 10.0 | 0.00 | 0.00 | 0.00 | 83 | 995.9 |
| 20260903222506 | 66 | 259 | 3.0 | 8.0 | 0.00 | 0.00 | 0.00 | 83 | 996.0 |
| 20260903222000 | 66 | 258 | 3.0 | 10.0 | 0.00 | 0.00 | 0.00 | 82 | 996.0 |
| 20260903221453 | 67 | 210 | 3.0 | 10.0 | 0.00 | 0.00 | 0.00 | 82 | 996.1 |
| 20260903220948 | 67 | 266 | 3.0 | 9.0 | 0.00 | 0.00 | 0.00 | 82 | 996.1 |
| 20260903220442 | 67 | 244 | 3.0 | 8.0 | 0.00 | 0.00 | 0.00 | 81 | 996.2 |
| 20260903215936 | 67 | 283 | 3.0 | 8.0 | 0.00 | 0.00 | 0.00 | 82 | 996.1 |
| 20260903215430 | 67 | 238 | 4.0 | 14.0 | 0.00 | 0.00 | 0.00 | 82 | 996.2 |
| 20260903214924 | 67 | 264 | 4.0 | 14.0 | 0.00 | 0.00 | 0.00 | 81 | 996.2 |
| 20260903213911 | 67 | 242 | 3.0 | 9.0 | 0.00 | 0.00 | 0.00 | 80 | 996.3 |
| 20260903213406 | 67 | 207 | 3.0 | 9.0 | 0.00 | 0.00 | 0.00 | 80 | 996.3 |
| 20260903212900 | 67 | 257 | 3.0 | 12.0 | 0.00 | 0.00 | 0.00 | 80 | 996.3 |
| 20260903211850 | 67 | 267 | 3.0 | 11.0 | 0.00 | 0.00 | 0.00 | 80 | 996.4 |
| 20260903211342 | 67 | 259 | 3.0 | 11.0 | 0.00 | 0.00 | 0.00 | 79 | 996.5 |
| 20260903210836 | 68 | 257 | 3.0 | 11.0 | 0.00 | 0.00 | 0.00 | 79 | 996.5 |
| 20260903210330 | 68 | 222 | 3.0 | 7.0 | 0.00 | 0.00 | 0.00 | 79 | 996.5 |
| 20260903205824 | 68 | 229 | 3.0 | 9.0 | 0.00 | 0.00 | 0.00 | 79 | 996.5 |
| 20260903205318 | 68 | 173 | 3.0 | 9.0 | 0.00 | 0.00 | 0.00 | 79 | 996.4 |
| 20260903204812 | 68 | 227 | 3.0 | 9.0 | 0.00 | 0.00 | 0.00 | 78 | 996.5 |
| 20260903204306 | 68 | 257 | 3.0 | 9.0 | 0.00 | 0.00 | 0.00 | 78 | 996.5 |
| 20260903202748 | 67 | 225 | 4.0 | 8.0 | 0.00 | 0.00 | 0.00 | 79 | 996.5 |
| 20260903202241 | 67 | 265 | 4.0 | 8.0 | 0.00 | 0.00 | 0.00 | 80 | 996.5 |
| 20260903201229 | 67 | 242 | 3.0 | 8.0 | 0.00 | 0.00 | 0.00 | 80 | 996.6 |
| 20260903200730 | 66 | 249 | 3.0 | 8.0 | 0.00 | 0.00 | 0.00 | 79 | 996.8 |
| 20260903200230 | 66 | 219 | 3.0 | 8.0 | 0.00 | 0.00 | 0.00 | 79 | 996.8 |
| 20260903195729 | 66 | 240 | 3.0 | 6.0 | 0.00 | 0.00 | 0.00 | 79 | 996.8 |
| 20260903194726 | 66 | 196 | 3.0 | 7.0 | 0.00 | 0.00 | 0.00 | 78 | 997.0 |
| 20260903194227 | 66 | 255 | 3.0 | 7.0 | 0.00 | 0.00 | 0.00 | 78 | 997.0 |
| 20260903193228 | 66 | 228 | 3.0 | 8.0 | 0.00 | 0.00 | 0.00 | 77 | 997.2 |
| 20260903192725 | 67 | 238 | 3.0 | 8.0 | 0.00 | 0.00 | 0.00 | 77 | 997.2 |
| 20260903192225 | 67 | 246 | 4.0 | 8.0 | 0.00 | 0.00 | 0.00 | 77 | 997.2 |
| 20260903191723 | 67 | 189 | 4.0 | 14.0 | 0.00 | 0.00 | 0.00 | 76 | 997.2 |
| 20260903191222 | 68 | 247 | 4.0 | 14.0 | 0.00 | 0.00 | 0.00 | 75 | 997.3 |